QPF
0.00 0.00 0.00 0.00 0.00 0.00 0.00 0.00 0.00 0.00 0.00 0.00 0.00 0.00 0.00 0.00 0.00 0.01 0.00 0.00 0.00 0.00 0.00 0.01 0.03 0.05 0.05 0.06 0.06 0.06 0.07 0.09 0.08 0.08 0.08 0.09 0.09 0.07 0.05 0.05 0.06 0.06 0.06 0.06 0.04 0.03 0.04 0.05 0.04
0.00 0.00 0.00 0.00 0.00 0.00 0.00 0.00 0.00 0.00 0.00 0.00 0.00 0.00 0.00 0.00 0.00 0.00 0.00 0.00 0.00 0.00 0.01 0.01 0.03 0.03 0.04 0.05 0.05 0.06 0.07 0.09 0.10 0.10 0.10 0.09 0.08 0.06 0.05 0.05 0.05 0.07 0.08 0.08 0.05 0.03 0.02 0.04 0.05
0.00 0.00 0.00 0.00 0.00 0.00 0.00 0.00 0.00 0.00 0.00 0.00 0.00 0.00 0.00 0.00 0.00 0.00 0.00 0.00 0.00 0.01 0.01 0.01 0.02 0.03 0.04 0.04 0.05 0.05 0.06 0.09 0.10 0.09 0.10 0.09 0.08 0.06 0.04 0.04 0.05 0.05 0.06 0.06 0.06 0.05 0.02 0.03 0.03
0.00 0.00 0.00 0.00 0.00 0.00 0.00 0.00 0.00 0.00 0.00 0.00 0.00 0.00 0.00 0.00 0.00 0.00 0.00 0.00 0.01 0.01 0.01 0.01 0.02 0.03 0.04 0.05 0.05 0.05 0.07 0.10 0.10 0.09 0.09 0.09 0.09 0.07 0.06 0.06 0.05 0.05 0.05 0.05 0.05 0.04 0.02 0.02 0.02
0.00 0.00 0.00 0.00 0.00 0.00 0.00 0.00 0.00 0.00 0.00 0.00 0.00 0.00 0.00 0.00 0.00 0.00 0.00 0.00 0.01 0.02 0.02 0.02 0.02 0.02 0.03 0.04 0.05 0.05 0.08 0.09 0.10 0.10 0.09 0.09 0.09 0.08 0.07 0.06 0.05 0.04 0.03 0.03 0.02 0.02 0.03 0.02 0.02
0.00 0.00 0.00 0.00 0.00 0.00 0.00 0.00 0.00 0.00 0.00 0.00 0.00 0.00 0.00 0.00 0.00 0.00 0.00 0.00 0.01 0.01 0.02 0.02 0.03 0.04 0.04 0.04 0.05 0.05 0.07 0.09 0.11 0.11 0.12 0.11 0.07 0.07 0.07 0.06 0.04 0.03 0.02 0.02 0.01 0.02 0.02 0.03 0.03
0.00 0.00 0.00 0.00 0.00 0.00 0.00 0.00 0.00 0.00 0.00 0.00 0.00 0.00 0.00 0.00 0.00 0.00 0.00 0.00 0.01 0.01 0.02 0.02 0.03 0.04 0.05 0.07 0.07 0.05 0.06 0.08 0.10 0.12 0.14 0.13 0.09 0.07 0.06 0.06 0.05 0.03 0.02 0.02 0.02 0.01 0.01 0.02 0.03
0.00 0.00 0.00 0.00 0.00 0.00 0.00 0.00 0.00 0.00 0.00 0.00 0.00 0.00 0.00 0.00 0.00 0.00 0.00 0.00 0.00 0.01 0.01 0.01 0.04 0.05 0.05 0.06 0.05 0.06 0.07 0.08 0.11 0.13 0.15 0.15 0.11 0.07 0.05 0.06 0.06 0.04 0.02 0.01 0.01 0.01 0.02 0.01 0.03
0.00 0.00 0.00 0.00 0.00 0.00 0.00 0.00 0.00 0.00 0.00 0.00 0.00 0.00 0.00 0.00 0.00 0.00 0.00 0.00 0.00 0.01 0.01 0.01 0.02 0.04 0.04 0.05 0.06 0.06 0.05 0.08 0.12 0.13 0.14 0.16 0.12 0.08 0.06 0.06 0.06 0.05 0.03 0.02 0.02 0.02 0.02 0.01 0.02
0.00 0.00 0.00 0.00 0.00 0.00 0.00 0.01 0.01 0.00 0.01 0.00 0.00 0.00 0.00 0.00 0.00 0.00 0.00 0.00 0.01 0.00 0.00 0.01 0.02 0.03 0.04 0.04 0.05 0.04 0.04 0.08 0.13 0.15 0.15 0.13 0.11 0.10 0.06 0.05 0.07 0.06 0.04 0.04 0.03 0.02 0.02 0.02 0.02
0.00 0.00 0.00 0.00 0.00 0.00 0.00 0.01 0.01 0.01 0.01 0.00 0.00 0.00 0.00 0.00 0.00 0.00 0.00 0.00 0.01 0.00 0.00 0.00 0.02 0.02 0.02 0.03 0.03 0.03 0.04 0.07 0.12 0.14 0.16 0.13 0.11 0.11 0.09 0.06 0.07 0.07 0.05 0.04 0.04 0.03 0.02 0.02 0.02
0.00 0.00 0.00 0.00 0.00 0.00 0.01 0.01 0.01 0.01 0.01 0.01 0.00 0.00 0.00 0.00 0.00 0.00 0.01 0.01 0.01 0.00 0.00 0.00 0.01 0.02 0.02 0.02 0.03 0.03 0.04 0.08 0.13 0.16 0.17 0.15 0.11 0.09 0.10 0.08 0.07 0.06 0.05 0.04 0.03 0.02 0.01 0.02 0.02
0.00 0.00 0.00 0.00 0.00 0.00 0.00 0.01 0.02 0.01 0.01 0.02 0.01 0.00 0.00 0.00 0.00 0.00 0.01 0.02 0.01 0.00 0.00 0.00 0.01 0.02 0.02 0.02 0.02 0.03 0.04 0.09 0.16 0.16 0.16 0.14 0.13 0.10 0.09 0.09 0.08 0.07 0.06 0.04 0.03 0.02 0.02 0.01 0.03
0.00 0.00 0.00 0.00 0.00 0.00 0.01 0.02 0.02 0.02 0.02 0.03 0.01 0.00 0.00 0.00 0.00 0.01 0.01 0.03 0.03 0.01 0.00 0.00 0.00 0.01 0.02 0.03 0.03 0.03 0.04 0.08 0.14 0.14 0.13 0.13 0.13 0.13 0.11 0.12 0.11 0.09 0.08 0.05 0.04 0.03 0.02 0.02 0.03
0.00 0.00 0.00 0.00 0.00 0.00 0.01 0.01 0.01 0.02 0.02 0.03 0.01 0.00 0.00 0.00 0.01 0.01 0.01 0.01 0.04 0.04 0.02 0.01 0.01 0.02 0.02 0.02 0.03 0.05 0.05 0.07 0.10 0.11 0.12 0.12 0.12 0.12 0.12 0.10 0.11 0.12 0.12 0.10 0.07 0.05 0.04 0.03 0.02
0.00 0.00 0.00 0.00 0.00 0.00 0.01 0.02 0.01 0.02 0.03 0.04 0.02 0.01 0.00 0.01 0.01 0.01 0.01 0.01 0.01 0.02 0.03 0.03 0.02 0.02 0.02 0.02 0.02 0.03 0.04 0.06 0.08 0.08 0.09 0.09 0.08 0.09 0.13 0.13 0.11 0.11 0.14 0.15 0.12 0.08 0.06 0.04 0.03
0.00 0.00 0.00 0.00 0.00 0.00 0.01 0.03 0.02 0.03 0.04 0.04 0.03 0.01 0.01 0.01 0.01 0.02 0.02 0.01 0.01 0.01 0.02 0.02 0.02 0.01 0.01 0.02 0.02 0.02 0.04 0.04 0.06 0.07 0.06 0.05 0.06 0.08 0.12 0.15 0.15 0.12 0.11 0.15 0.15 0.11 0.07 0.05 0.04
0.00 0.00 0.00 0.00 0.01 0.01 0.02 0.03 0.02 0.03 0.03 0.02 0.01 0.01 0.01 0.01 0.01 0.01 0.01 0.02 0.01 0.01 0.02 0.02 0.02 0.02 0.01 0.01 0.02 0.02 0.04 0.04 0.05 0.06 0.05 0.03 0.03 0.05 0.09 0.12 0.15 0.13 0.10 0.12 0.17 0.15 0.11 0.07 0.05
0.00 0.00 0.00 0.01 0.02 0.02 0.02 0.04 0.03 0.03 0.02 0.01 0.00 0.00 0.00 0.01 0.01 0.01 0.01 0.01 0.01 0.01 0.01 0.02 0.02 0.02 0.02 0.02 0.01 0.01 0.03 0.04 0.04 0.04 0.03 0.03 0.02 0.02 0.04 0.07 0.11 0.12 0.11 0.08 0.12 0.16 0.16 0.12 0.09
0.00 0.00 0.00 0.01 0.02 0.02 0.03 0.05 0.03 0.03 0.02 0.01 0.00 0.00 0.00 0.00 0.00 0.00 0.00 0.00 0.00 0.00 0.00 0.01 0.02 0.02 0.03 0.03 0.02 0.01 0.02 0.03 0.04 0.03 0.02 0.01 0.02 0.03 0.03 0.03 0.05 0.07 0.09 0.07 0.06 0.11 0.15 0.13 0.11
0.00 0.00 0.01 0.02 0.02 0.02 0.02 0.04 0.03 0.03 0.02 0.01 0.00 0.00 0.00 0.00 0.00 0.00 0.00 0.00 0.00 0.00 0.00 0.00 0.01 0.02 0.03 0.03 0.03 0.03 0.03 0.03 0.03 0.02 0.01 0.01 0.01 0.01 0.02 0.03 0.04 0.05 0.07 0.09 0.07 0.07 0.09 0.11 0.11
0.00 0.00 0.00 0.02 0.03 0.03 0.03 0.04 0.03 0.02 0.02 0.01 0.00 0.00 0.00 0.00 0.00 0.00 0.00 0.00 0.00 0.00 0.00 0.00 0.00 0.01 0.02 0.04 0.03 0.02 0.03 0.03 0.02 0.01 0.01 0.01 0.01 0.00 0.00 0.01 0.02 0.03 0.05 0.06 0.07 0.08 0.07 0.07 0.08
0.01 0.00 0.00 0.01 0.03 0.04 0.03 0.03 0.03 0.02 0.02 0.01 0.00 0.00 0.00 0.00 0.00 0.00 0.00 0.00 0.00 0.00 0.00 0.00 0.00 0.00 0.01 0.03 0.04 0.04 0.03 0.02 0.01 0.01 0.01 0.01 0.00 0.00 0.00 0.00 0.01 0.02 0.03 0.05 0.06 0.07 0.07 0.07 0.06
0.02 0.01 0.01 0.02 0.04 0.04 0.03 0.03 0.03 0.02 0.01 0.01 0.00 0.00 0.00 0.00 0.00 0.00 0.00 0.00 0.00 0.00 0.00 0.00 0.00 0.00 0.00 0.01 0.03 0.05 0.05 0.03 0.01 0.01 0.01 0.01 0.00 0.00 0.00 0.00 0.01 0.02 0.03 0.04 0.04 0.05 0.05 0.06 0.06
0.03 0.03 0.04 0.05 0.05 0.03 0.02 0.02 0.02 0.01 0.01 0.00 0.00 0.00 0.00 0.00 0.00 0.00 0.00 0.00 0.00 0.00 0.00 0.00 0.00 0.00 0.00 0.00 0.01 0.02 0.04 0.05 0.04 0.02 0.01 0.01 0.01 0.01 0.00 0.01 0.01 0.01 0.02 0.04 0.05 0.05 0.05 0.05 0.06
0.03 0.02 0.04 0.04 0.04 0.03 0.01 0.02 0.01 0.00 0.00 0.00 0.00 0.00 0.00 0.00 0.00 0.00 0.00 0.00 0.00 0.00 0.00 0.00 0.00 0.00 0.00 0.00 0.00 0.00 0.01 0.03 0.05 0.05 0.03 0.02 0.01 0.01 0.00 0.00 0.01 0.01 0.01 0.03 0.05 0.06 0.05 0.05 0.05
0.03 0.03 0.03 0.03 0.02 0.02 0.01 0.01 0.01 0.00 0.00 0.00 0.00 0.00 0.00 0.00 0.00 0.00 0.00 0.00 0.00 0.00 0.00 0.00 0.00 0.00 0.01 0.01 0.01 0.00 0.00 0.01 0.03 0.05 0.06 0.05 0.02 0.01 0.01 0.00 0.00 0.00 0.00 0.01 0.02 0.03 0.03 0.03 0.03
0.02 0.03 0.03 0.04 0.04 0.03 0.01 0.01 0.01 0.01 0.00 0.00 0.00 0.00 0.00 0.00 0.00 0.00 0.00 0.01 0.01 0.01 0.01 0.01 0.01 0.00 0.00 0.01 0.01 0.01 0.01 0.01 0.01 0.03 0.04 0.05 0.05 0.03 0.01 0.01 0.01 0.00 0.01 0.01 0.01 0.02 0.02 0.02 0.02
0.02 0.03 0.03 0.04 0.03 0.03 0.03 0.02 0.01 0.00 0.00 0.00 0.00 0.00 0.00 0.00 0.00 0.00 0.00 0.00 0.01 0.01 0.01 0.01 0.01 0.00 0.01 0.00 0.00 0.01 0.01 0.01 0.01 0.01 0.01 0.03 0.04 0.04 0.03 0.01 0.01 0.01 0.01 0.01 0.01 0.01 0.02 0.02 0.02
0.02 0.02 0.02 0.04 0.03 0.02 0.02 0.02 0.00 0.00 0.00 0.00 0.00 0.00 0.00 0.00 0.00 0.00 0.00 0.00 0.00 0.00 0.01 0.01 0.01 0.01 0.01 0.01 0.01 0.00 0.00 0.00 0.01 0.01 0.01 0.01 0.02 0.03 0.03 0.02 0.02 0.02 0.01 0.01 0.01 0.02 0.02 0.02 0.02
MSLP
1011.25 1011.56 1011.90 1012.20 1012.37 1012.38 1012.22 1011.90 1011.48 1011.05 1010.68 1010.45 1010.37 1010.45 1010.64 1010.86 1011.03 1011.10 1011.04 1010.85 1010.59 1010.31 1010.09 1009.98 1010.01 1010.17 1010.41 1010.70 1010.97 1011.21 1011.40 1011.55 1011.69 1011.86 1012.08 1012.36 1012.69 1013.04 1013.37 1013.66 1013.89 1014.06 1014.19 1014.32 1014.47 1014.67 1014.91 1015.19 1015.48
1011.46 1011.78 1012.10 1012.34 1012.44 1012.36 1012.10 1011.70 1011.24 1010.80 1010.46 1010.27 1010.26 1010.41 1010.64 1010.89 1011.08 1011.13 1011.06 1010.85 1010.58 1010.32 1010.13 1010.06 1010.14 1010.34 1010.64 1010.96 1011.27 1011.53 1011.73 1011.88 1012.02 1012.19 1012.40 1012.67 1012.97 1013.29 1013.59 1013.85 1014.04 1014.18 1014.29 1014.41 1014.56 1014.75 1014.99 1015.27 1015.55
1011.70 1012.02 1012.29 1012.47 1012.48 1012.31 1011.99 1011.55 1011.07 1010.65 1010.35 1010.22 1010.27 1010.45 1010.71 1010.97 1011.13 1011.17 1011.06 1010.85 1010.59 1010.36 1010.21 1010.20 1010.35 1010.62 1010.96 1011.33 1011.66 1011.93 1012.13 1012.29 1012.43 1012.58 1012.78 1013.03 1013.31 1013.60 1013.87 1014.09 1014.25 1014.37 1014.47 1014.58 1014.73 1014.92 1015.16 1015.42 1015.69
1011.95 1012.24 1012.47 1012.57 1012.51 1012.28 1011.91 1011.46 1011.00 1010.63 1010.40 1010.33 1010.43 1010.65 1010.91 1011.14 1011.27 1011.27 1011.15 1010.93 1010.69 1010.50 1010.42 1010.48 1010.69 1011.02 1011.40 1011.79 1012.13 1012.40 1012.60 1012.75 1012.88 1013.03 1013.22 1013.45 1013.71 1013.97 1014.21 1014.41 1014.55 1014.66 1014.76 1014.88 1015.02 1015.21 1015.44 1015.68 1015.92
1012.19 1012.45 1012.61 1012.65 1012.53 1012.26 1011.89 1011.46 1011.06 1010.76 1010.60 1010.61 1010.75 1010.98 1011.23 1011.43 1011.52 1011.49 1011.34 1011.14 1010.93 1010.79 1010.77 1010.90 1011.17 1011.53 1011.93 1012.32 1012.65 1012.91 1013.09 1013.23 1013.35 1013.49 1013.68 1013.90 1014.15 1014.40 1014.62 1014.81 1014.95 1015.06 1015.16 1015.28 1015.43 1015.62 1015.83 1016.04 1016.24
1012.41 1012.62 1012.73 1012.72 1012.57 1012.29 1011.94 1011.56 1011.24 1011.03 1010.96 1011.03 1011.21 1011.44 1011.67 1011.83 1011.87 1011.81 1011.65 1011.45 1011.29 1011.20 1011.25 1011.43 1011.73 1012.11 1012.50 1012.87 1013.17 1013.40 1013.56 1013.68 1013.80 1013.95 1014.14 1014.37 1014.61 1014.86 1015.08 1015.26 1015.40 1015.52 1015.63 1015.76 1015.91 1016.09 1016.27 1016.45 1016.60
1012.60 1012.77 1012.85 1012.81 1012.65 1012.39 1012.08 1011.78 1011.55 1011.43 1011.43 1011.55 1011.75 1011.97 1012.16 1012.27 1012.27 1012.17 1012.00 1011.82 1011.69 1011.66 1011.75 1011.97 1012.29 1012.66 1013.03 1013.36 1013.62 1013.82 1013.96 1014.07 1014.20 1014.37 1014.57 1014.81 1015.07 1015.32 1015.54 1015.72 1015.86 1015.98 1016.10 1016.23 1016.38 1016.54 1016.71 1016.85 1016.95
1012.77 1012.93 1012.99 1012.94 1012.80 1012.58 1012.33 1012.12 1011.97 1011.92 1011.98 1012.12 1012.31 1012.50 1012.63 1012.68 1012.63 1012.50 1012.33 1012.17 1012.07 1012.08 1012.20 1012.44 1012.75 1013.10 1013.44 1013.73 1013.95 1014.12 1014.25 1014.38 1014.53 1014.73 1014.96 1015.22 1015.49 1015.74 1015.96 1016.13 1016.27 1016.39 1016.50 1016.63 1016.77 1016.92 1017.06 1017.17 1017.23
1012.94 1013.09 1013.16 1013.13 1013.03 1012.86 1012.69 1012.54 1012.46 1012.46 1012.55 1012.69 1012.84 1012.97 1013.03 1013.01 1012.91 1012.74 1012.56 1012.41 1012.34 1012.37 1012.52 1012.76 1013.05 1013.37 1013.67 1013.92 1014.13 1014.29 1014.43 1014.59 1014.78 1015.02 1015.29 1015.58 1015.86 1016.11 1016.32 1016.47 1016.59 1016.70 1016.80 1016.92 1017.05 1017.18 1017.30 1017.38 1017.41
1013.12 1013.29 1013.38 1013.39 1013.33 1013.22 1013.11 1013.02 1012.98 1013.01 1013.09 1013.19 1013.29 1013.34 1013.33 1013.23 1013.07 1012.88 1012.69 1012.54 1012.49 1012.53 1012.68 1012.90 1013.18 1013.46 1013.73 1013.96 1014.15 1014.33 1014.51 1014.71 1014.96 1015.24 1015.55 1015.87 1016.16 1016.40 1016.59 1016.72 1016.82 1016.90 1016.98 1017.09 1017.21 1017.33 1017.43 1017.49 1017.50
1013.32 1013.51 1013.64 1013.69 1013.68 1013.63 1013.56 1013.51 1013.49 1013.51 1013.55 1013.60 1013.62 1013.60 1013.50 1013.35 1013.14 1012.92 1012.72 1012.58 1012.53 1012.57 1012.71 1012.91 1013.16 1013.41 1013.65 1013.87 1014.07 1014.28 1014.50 1014.76 1015.07 1015.40 1015.75 1016.08 1016.37 1016.60 1016.77 1016.87 1016.95 1017.01 1017.08 1017.17 1017.28 1017.39 1017.48 1017.53 1017.53
1013.55 1013.76 1013.92 1014.01 1014.04 1014.02 1013.99 1013.95 1013.93 1013.91 1013.91 1013.89 1013.84 1013.74 1013.59 1013.39 1013.16 1012.93 1012.73 1012.60 1012.54 1012.58 1012.69 1012.86 1013.07 1013.29 1013.51 1013.72 1013.94 1014.18 1014.46 1014.77 1015.13 1015.50 1015.88 1016.22 1016.51 1016.72 1016.87 1016.96 1017.01 1017.06 1017.13 1017.21 1017.32 1017.43 1017.51 1017.56 1017.56
1013.79 1014.02 1014.20 1014.31 1014.36 1014.37 1014.34 1014.29 1014.24 1014.18 1014.12 1014.04 1013.94 1013.80 1013.62 1013.41 1013.18 1012.97 1012.79 1012.67 1012.61 1012.63 1012.71 1012.85 1013.01 1013.20 1013.39 1013.60 1013.84 1014.11 1014.42 1014.77 1015.16 1015.56 1015.95 1016.29 1016.57 1016.77 1016.91 1016.99 1017.05 1017.10 1017.17 1017.26 1017.38 1017.49 1017.58 1017.63 1017.63
1014.05 1014.27 1014.45 1014.56 1014.61 1014.61 1014.57 1014.49 1014.40 1014.30 1014.18 1014.06 1013.93 1013.78 1013.62 1013.44 1013.26 1013.10 1012.96 1012.86 1012.81 1012.81 1012.86 1012.95 1013.07 1013.21 1013.38 1013.58 1013.82 1014.10 1014.43 1014.80 1015.20 1015.60 1015.97 1016.30 1016.57 1016.77 1016.90 1017.00 1017.07 1017.15 1017.25 1017.37 1017.50 1017.62 1017.72 1017.77 1017.76
1014.31 1014.51 1014.67 1014.77 1014.81 1014.78 1014.69 1014.57 1014.42 1014.26 1014.11 1013.97 1013.83 1013.72 1013.61 1013.51 1013.42 1013.33 1013.26 1013.21 1013.17 1013.16 1013.17 1013.21 1013.28 1013.37 1013.51 1013.69 1013.92 1014.19 1014.51 1014.87 1015.25 1015.62 1015.97 1016.28 1016.53 1016.73 1016.88 1017.00 1017.11 1017.23 1017.37 1017.52 1017.68 1017.81 1017.92 1017.96 1017.95
1014.59 1014.77 1014.90 1014.97 1014.97 1014.89 1014.75 1014.56 1014.35 1014.13 1013.93 1013.77 1013.66 1013.61 1013.59 1013.60 1013.63 1013.65 1013.67 1013.67 1013.65 1013.63 1013.62 1013.61 1013.63 1013.68 1013.78 1013.93 1014.13 1014.39 1014.68 1015.00 1015.34 1015.66 1015.97 1016.24 1016.47 1016.67 1016.85 1017.01 1017.17 1017.34 1017.53 1017.72 1017.90 1018.04 1018.14 1018.18 1018.15
1014.91 1015.06 1015.17 1015.21 1015.17 1015.04 1014.82 1014.54 1014.23 1013.94 1013.69 1013.52 1013.44 1013.45 1013.54 1013.68 1013.85 1013.99 1014.11 1014.18 1014.20 1014.18 1014.14 1014.10 1014.07 1014.09 1014.15 1014.28 1014.45 1014.67 1014.93 1015.20 1015.47 1015.73 1015.98 1016.21 1016.43 1016.63 1016.82 1017.03 1017.25 1017.48 1017.71 1017.93 1018.13 1018.27 1018.36 1018.38 1018.34
1015.28 1015.44 1015.54 1015.57 1015.48 1015.28 1014.97 1014.58 1014.16 1013.77 1013.45 1013.24 1013.18 1013.25 1013.45 1013.72 1014.01 1014.29 1014.51 1014.66 1014.72 1014.71 1014.65 1014.59 1014.53 1014.52 1014.57 1014.67 1014.82 1015.01 1015.22 1015.44 1015.65 1015.85 1016.04 1016.22 1016.41 1016.61 1016.83 1017.08 1017.34 1017.62 1017.89 1018.13 1018.33 1018.47 1018.54 1018.54 1018.48
1015.74 1015.93 1016.06 1016.08 1015.96 1015.69 1015.27 1014.75 1014.19 1013.66 1013.23 1012.97 1012.89 1013.00 1013.28 1013.66 1014.08 1014.48 1014.81 1015.02 1015.13 1015.14 1015.08 1015.01 1014.94 1014.92 1014.95 1015.05 1015.19 1015.36 1015.53 1015.70 1015.86 1016.00 1016.13 1016.27 1016.43 1016.63 1016.87 1017.15 1017.45 1017.76 1018.05 1018.31 1018.50 1018.63 1018.68 1018.65 1018.57
1016.29 1016.55 1016.73 1016.78 1016.63 1016.29 1015.75 1015.07 1014.34 1013.64 1013.08 1012.71 1012.59 1012.71 1013.03 1013.50 1014.02 1014.52 1014.94 1015.23 1015.38 1015.41 1015.37 1015.29 1015.23 1015.21 1015.26 1015.36 1015.51 1015.67 1015.83 1015.97 1016.08 1016.17 1016.26 1016.36 1016.50 1016.69 1016.94 1017.24 1017.56 1017.89 1018.20 1018.45 1018.64 1018.75 1018.77 1018.73 1018.63
1016.93 1017.29 1017.55 1017.63 1017.47 1017.04 1016.38 1015.53 1014.61 1013.72 1012.98 1012.48 1012.28 1012.37 1012.71 1013.22 1013.83 1014.41 1014.90 1015.25 1015.45 1015.51 1015.49 1015.43 1015.38 1015.38 1015.45 1015.57 1015.73 1015.91 1016.07 1016.19 1016.28 1016.33 1016.39 1016.47 1016.59 1016.78 1017.03 1017.33 1017.67 1018.01 1018.32 1018.57 1018.75 1018.85 1018.86 1018.81 1018.70
1017.62 1018.10 1018.44 1018.56 1018.38 1017.88 1017.08 1016.06 1014.93 1013.84 1012.92 1012.28 1011.97 1012.00 1012.33 1012.87 1013.53 1014.17 1014.72 1015.12 1015.36 1015.46 1015.45 1015.41 1015.38 1015.41 1015.50 1015.65 1015.85 1016.04 1016.21 1016.33 1016.41 1016.45 1016.49 1016.55 1016.67 1016.85 1017.11 1017.42 1017.77 1018.11 1018.42 1018.67 1018.85 1018.94 1018.95 1018.90 1018.81
1018.32 1018.90 1019.31 1019.45 1019.25 1018.67 1017.74 1016.56 1015.25 1013.97 1012.87 1012.08 1011.67 1011.63 1011.93 1012.48 1013.16 1013.85 1014.44 1014.88 1015.16 1015.28 1015.30 1015.28 1015.27 1015.32 1015.44 1015.62 1015.83 1016.05 1016.23 1016.37 1016.45 1016.49 1016.53 1016.59 1016.70 1016.89 1017.15 1017.47 1017.82 1018.17 1018.49 1018.75 1018.92 1019.02 1019.05 1019.01 1018.94
1018.97 1019.61 1020.06 1020.21 1019.96 1019.30 1018.26 1016.94 1015.48 1014.04 1012.81 1011.90 1011.39 1011.29 1011.56 1012.10 1012.78 1013.49 1014.11 1014.58 1014.88 1015.02 1015.06 1015.05 1015.07 1015.13 1015.27 1015.47 1015.71 1015.94 1016.14 1016.29 1016.38 1016.43 1016.47 1016.54 1016.66 1016.86 1017.13 1017.46 1017.83 1018.19 1018.51 1018.78 1018.97 1019.09 1019.14 1019.13 1019.09
1019.52 1020.17 1020.61 1020.72 1020.42 1019.69 1018.57 1017.15 1015.58 1014.04 1012.72 1011.73 1011.15 1011.01 1011.24 1011.76 1012.44 1013.15 1013.77 1014.25 1014.56 1014.71 1014.77 1014.77 1014.80 1014.88 1015.03 1015.24 1015.49 1015.73 1015.95 1016.10 1016.21 1016.27 1016.33 1016.41 1016.55 1016.76 1017.05 1017.39 1017.76 1018.14 1018.48 1018.76 1018.97 1019.11 1019.19 1019.22 1019.22
1019.94 1020.53 1020.91 1020.96 1020.60 1019.81 1018.62 1017.16 1015.55 1013.98 1012.62 1011.60 1010.99 1010.82 1011.02 1011.51 1012.16 1012.84 1013.45 1013.91 1014.21 1014.37 1014.44 1014.45 1014.49 1014.58 1014.74 1014.96 1015.21 1015.46 1015.68 1015.85 1015.96 1016.04 1016.12 1016.22 1016.38 1016.60 1016.90 1017.26 1017.64 1018.02 1018.37 1018.67 1018.90 1019.07 1019.18 1019.25 1019.29
1020.23 1020.70 1020.98 1020.93 1020.50 1019.67 1018.47 1017.00 1015.42 1013.88 1012.55 1011.55 1010.95 1010.76 1010.93 1011.37 1011.96 1012.59 1013.14 1013.57 1013.85 1014.01 1014.07 1014.10 1014.15 1014.25 1014.43 1014.65 1014.91 1015.17 1015.39 1015.57 1015.69 1015.79 1015.88 1016.00 1016.17 1016.41 1016.72 1017.09 1017.47 1017.86 1018.22 1018.52 1018.77 1018.96 1019.10 1019.20 1019.28
1020.42 1020.74 1020.87 1020.72 1020.22 1019.36 1018.18 1016.77 1015.26 1013.81 1012.56 1011.61 1011.04 1010.84 1010.96 1011.33 1011.85 1012.38 1012.86 1013.23 1013.48 1013.61 1013.67 1013.72 1013.79 1013.92 1014.11 1014.36 1014.62 1014.89 1015.12 1015.30 1015.44 1015.55 1015.65 1015.79 1015.98 1016.23 1016.54 1016.91 1017.29 1017.67 1018.03 1018.33 1018.58 1018.78 1018.94 1019.07 1019.18
1020.60 1020.73 1020.69 1020.42 1019.85 1018.99 1017.86 1016.54 1015.16 1013.84 1012.70 1011.83 1011.29 1011.07 1011.14 1011.41 1011.81 1012.23 1012.60 1012.89 1013.08 1013.19 1013.26 1013.33 1013.43 1013.59 1013.82 1014.09 1014.37 1014.65 1014.89 1015.09 1015.24 1015.36 1015.48 1015.63 1015.83 1016.08 1016.40 1016.75 1017.13 1017.49 1017.83 1018.13 1018.38 1018.58 1018.75 1018.89 1019.03
1020.83 1020.76 1020.56 1020.17 1019.54 1018.68 1017.61 1016.41 1015.17 1013.99 1012.98 1012.20 1011.68 1011.44 1011.42 1011.58 1011.83 1012.11 1012.36 1012.55 1012.68 1012.77 1012.84 1012.94 1013.08 1013.29 1013.56 1013.86 1014.18 1014.47 1014.73 1014.93 1015.09 1015.23 1015.37 1015.52 1015.73 1015.99 1016.29 1016.64 1017.00 1017.35 1017.67 1017.95 1018.19 1018.39 1018.56 1018.72 1018.87
Thickness
5706 5712 5715 5708 5693 5687 5693 5714 5727 5726 5727 5728 5730 5728 5720 5711 5706 5694 5702 5710 5712 5712 5712 5713 5713 5714 5715 5716 5716 5717 5717 5717 5718 5718 5718 5717 5717 5717 5717 5717 5717 5716 5716 5716 5715 5714 5714 5713 5713
5702 5709 5705 5696 5682 5678 5694 5713 5716 5719 5721 5724 5724 5721 5715 5706 5706 5700 5700 5704 5706 5707 5707 5707 5708 5708 5709 5710 5711 5712 5712 5713 5713 5713 5713 5713 5713 5713 5712 5712 5712 5712 5712 5711 5711 5710 5709 5709 5708
5698 5703 5692 5686 5682 5683 5696 5707 5711 5714 5717 5716 5712 5711 5704 5697 5699 5695 5695 5699 5700 5700 5700 5701 5702 5703 5704 5705 5706 5706 5707 5708 5708 5709 5709 5709 5709 5708 5708 5708 5708 5707 5707 5707 5706 5705 5705 5704 5704
5694 5690 5686 5678 5679 5694 5700 5704 5705 5704 5706 5708 5704 5696 5692 5692 5691 5689 5691 5693 5693 5693 5693 5693 5695 5696 5698 5699 5700 5701 5702 5702 5703 5704 5704 5704 5704 5704 5704 5703 5703 5703 5702 5702 5702 5701 5701 5700 5700
5687 5679 5671 5670 5680 5693 5700 5702 5701 5696 5696 5698 5697 5687 5679 5682 5684 5684 5685 5686 5685 5685 5685 5686 5687 5689 5690 5692 5693 5694 5695 5696 5697 5698 5699 5699 5699 5699 5699 5698 5698 5698 5698 5698 5697 5697 5696 5696 5695
5673 5672 5662 5664 5677 5690 5694 5697 5694 5689 5689 5691 5688 5680 5670 5673 5675 5676 5677 5678 5679 5678 5678 5678 5680 5681 5683 5684 5686 5688 5689 5690 5691 5692 5693 5693 5694 5694 5694 5694 5693 5693 5693 5693 5693 5692 5692 5691 5691
5662 5661 5658 5667 5672 5679 5684 5689 5683 5680 5678 5679 5682 5672 5664 5665 5667 5669 5671 5671 5671 5671 5670 5671 5672 5673 5675 5677 5678 5680 5682 5683 5684 5685 5687 5687 5688 5688 5689 5689 5688 5688 5688 5688 5688 5687 5686 5686 5686
5661 5657 5658 5662 5665 5668 5675 5678 5677 5672 5669 5675 5674 5663 5657 5659 5662 5663 5663 5663 5663 5663 5662 5663 5664 5666 5667 5669 5671 5672 5675 5676 5678 5679 5680 5681 5682 5682 5682 5683 5683 5683 5682 5682 5682 5682 5681 5681 5681
5657 5644 5646 5656 5659 5660 5666 5665 5666 5667 5662 5662 5661 5656 5654 5654 5655 5653 5653 5652 5653 5654 5655 5655 5657 5658 5660 5662 5663 5665 5667 5669 5671 5672 5673 5675 5675 5676 5676 5676 5677 5677 5677 5676 5676 5676 5676 5676 5675
5643 5634 5645 5654 5656 5653 5655 5654 5654 5653 5649 5647 5646 5646 5647 5646 5645 5644 5643 5643 5643 5644 5646 5647 5649 5650 5652 5654 5656 5657 5659 5661 5663 5665 5666 5668 5668 5669 5669 5669 5670 5670 5671 5670 5670 5670 5670 5670 5670
5638 5635 5643 5647 5649 5647 5644 5644 5646 5642 5638 5639 5637 5637 5637 5636 5635 5635 5636 5636 5636 5637 5638 5639 5640 5642 5644 5646 5648 5649 5651 5653 5655 5657 5658 5660 5661 5661 5662 5662 5662 5663 5664 5664 5664 5664 5664 5664 5664
5632 5634 5638 5637 5638 5635 5633 5634 5633 5633 5631 5636 5634 5632 5630 5628 5627 5627 5627 5628 5628 5629 5630 5631 5632 5633 5635 5637 5639 5641 5643 5644 5647 5648 5650 5651 5652 5653 5653 5653 5655 5656 5656 5657 5658 5658 5658 5658 5658
5623 5624 5629 5629 5627 5625 5623 5622 5621 5622 5626 5628 5626 5623 5621 5619 5619 5619 5621 5620 5620 5620 5621 5622 5623 5625 5627 5628 5631 5632 5634 5636 5638 5639 5640 5642 5643 5644 5644 5645 5646 5648 5649 5650 5651 5651 5651 5651 5651
5616 5616 5617 5618 5617 5616 5613 5613 5612 5616 5618 5617 5616 5613 5612 5611 5611 5611 5612 5611 5611 5611 5612 5613 5614 5616 5618 5619 5621 5623 5625 5627 5628 5629 5631 5632 5633 5634 5635 5636 5637 5639 5641 5642 5643 5643 5644 5644 5644
5608 5603 5605 5609 5609 5608 5604 5601 5606 5610 5609 5607 5607 5605 5604 5603 5603 5602 5602 5602 5602 5602 5603 5605 5606 5607 5609 5611 5612 5614 5616 5617 5619 5620 5621 5623 5625 5626 5626 5626 5628 5630 5632 5633 5635 5635 5636 5636 5635
5596 5593 5591 5603 5603 5600 5591 5589 5602 5604 5600 5597 5597 5596 5594 5593 5593 5593 5594 5594 5594 5594 5594 5596 5598 5598 5600 5601 5603 5605 5605 5607 5608 5610 5612 5613 5615 5617 5617 5617 5619 5620 5622 5624 5625 5626 5626 5626 5625
5584 5581 5586 5592 5597 5593 5585 5583 5592 5594 5592 5589 5588 5586 5584 5584 5584 5584 5585 5584 5584 5585 5586 5586 5588 5589 5590 5592 5594 5595 5596 5597 5598 5600 5602 5603 5605 5606 5607 5608 5609 5611 5613 5614 5615 5616 5617 5616 5616
5572 5575 5580 5582 5586 5583 5577 5577 5582 5584 5582 5581 5580 5578 5576 5575 5574 5575 5575 5575 5574 5575 5576 5577 5578 5579 5580 5582 5584 5585 5586 5587 5589 5590 5592 5593 5594 5596 5597 5598 5599 5601 5602 5603 5604 5605 5606 5606 5607
5568 5565 5565 5573 5577 5572 5568 5569 5574 5576 5574 5573 5572 5571 5569 5568 5567 5566 5565 5564 5564 5565 5566 5567 5567 5568 5570 5571 5573 5574 5575 5576 5578 5580 5581 5583 5584 5586 5587 5587 5589 5591 5591 5592 5593 5594 5595 5596 5597
5559 5553 5555 5561 5565 5561 5557 5560 5569 5570 5570 5569 5567 5565 5562 5559 5558 5557 5556 5554 5554 5555 5555 5556 5557 5558 5559 5561 5562 5564 5565 5566 5567 5569 5570 5572 5573 5575 5576 5577 5579 5580 5581 5581 5582 5583 5583 5584 5586
5550 5546 5547 5546 5548 5551 5545 5546 5560 5566 5565 5564 5562 5559 5556 5552 5548 5547 5545 5544 5544 5544 5545 5546 5547 5548 5549 5550 5552 5554 5555 5556 5557 5558 5559 5561 5562 5564 5565 5567 5568 5570 5570 5570 5571 5572 5573 5573 5574
5537 5544 5543 5538 5528 5528 5538 5527 5551 5555 5554 5554 5551 5548 5545 5543 5541 5538 5536 5535 5535 5535 5535 5536 5537 5538 5539 5540 5542 5543 5544 5545 5546 5547 5549 5551 5552 5554 5555 5556 5558 5559 5559 5560 5560 5562 5563 5564 5563
5532 5535 5533 5530 5522 5518 5526 5520 5537 5546 5542 5543 5542 5540 5537 5535 5532 5530 5529 5527 5527 5526 5526 5526 5528 5529 5529 5530 5532 5533 5533 5535 5537 5538 5539 5540 5542 5543 5544 5546 5547 5548 5548 5550 5550 5551 5553 5553 5553
5525 5522 5522 5520 5512 5504 5520 5515 5526 5534 5538 5536 5534 5532 5529 5527 5525 5523 5521 5519 5518 5517 5518 5518 5518 5519 5520 5520 5521 5522 5523 5525 5526 5527 5528 5530 5531 5533 5534 5535 5536 5537 5538 5539 5541 5541 5541 5542 5542
5512 5504 5499 5498 5495 5504 5525 5518 5517 5530 5533 5530 5525 5522 5520 5518 5515 5513 5511 5509 5509 5509 5509 5509 5509 5510 5510 5511 5511 5512 5513 5514 5516 5517 5518 5519 5521 5522 5523 5524 5525 5526 5527 5528 5529 5530 5530 5530 5531
5503 5501 5492 5491 5499 5509 5517 5511 5514 5524 5524 5522 5518 5514 5511 5509 5506 5505 5503 5501 5500 5500 5500 5500 5500 5501 5501 5502 5502 5502 5503 5504 5506 5507 5509 5510 5511 5513 5514 5515 5516 5517 5517 5518 5518 5519 5519 5519 5519
5496 5494 5500 5490 5490 5488 5501 5508 5509 5515 5512 5509 5506 5504 5501 5500 5499 5497 5495 5493 5493 5492 5492 5492 5492 5492 5492 5492 5492 5492 5493 5494 5496 5498 5499 5500 5502 5503 5504 5505 5506 5507 5508 5508 5508 5508 5509 5509 5509
5490 5490 5485 5481 5479 5486 5503 5506 5501 5501 5502 5500 5497 5494 5492 5491 5489 5488 5486 5485 5484 5483 5483 5483 5483 5483 5483 5483 5483 5484 5484 5485 5486 5488 5489 5490 5492 5493 5494 5495 5495 5496 5497 5497 5497 5498 5498 5498 5498
5480 5479 5478 5478 5480 5479 5484 5492 5502 5498 5499 5495 5490 5487 5484 5481 5479 5478 5476 5475 5475 5474 5474 5473 5473 5473 5473 5474 5474 5475 5475 5476 5477 5478 5479 5481 5482 5483 5484 5485 5485 5486 5486 5487 5487 5487 5487 5487 5487
5476 5477 5472 5465 5470 5476 5473 5477 5491 5490 5488 5487 5482 5479 5476 5473 5470 5468 5466 5466 5465 5464 5464 5463 5463 5464 5464 5465 5465 5466 5467 5468 5467 5468 5469 5471 5472 5473 5474 5475 5475 5475 5476 5476 5476 5476 5477 5477 5477